This demonstration page uses our WeatherBlox Daily Observations layout. Learn more.

Left ArrowRight Arrow

41.55636, -103.73856

Hourly Observations for October 17, 2021

Temp ( °F °C ) Dew Point ( °F °C ) Humidity (%) Winds ( mph kmh ) Pressure ( in mb ) Visibility ( mi km ) Precip ( " mm )
12:58 am 00:58 Clear 43 6.3 25 -3.8 49 49 W 5 7 30.22 1023 10 16 0.00 0.00
1:58 am 01:58 Clear 39 4.1 25 -3.7 57 57 SW 6 9 30.22 1023 10 16 0.00 0.00
2:58 am 02:58 Clear 38 3.2 25 -3.8 60 60 WSW 8 13 30.19 1023 10 16 0.00 0.00
3:58 am 03:58 Clear 39 4 24 -4.4 55 55 SW 7 11 30.17 1022 10 16 0.00 0.00
4:58 am 04:58 Clear 40 4.6 24 -4.6 52 52 NW 5 7 30.16 1022 10 16 0.00 0.00
5:58 am 05:58 Clear 36 2.1 24 -4.2 63 63 WSW 6 9 30.17 1022 10 16 0.00 0.00
6:58 am 06:58 Clear 34 0.9 24 -4.5 68 68 W 6 9 30.22 1023 10 16 0.00 0.00
7:58 am 07:58 Sunny 39 3.8 24 -4.4 55 55 WSW 6 9 30.21 1023 10 16 0.00 0.00
8:58 am 08:58 Sunny 46 7.8 26 -3.3 46 46 WSW 5 7 30.19 1022 10 16 0.00 0.00
9:58 am 09:58 Sunny 54 12.1 27 -3 35 35 Calm 30.15 1021 10 16 0.00 0.00
10:58 am 10:58 Sunny 64 17.8 28 -2.1 26 26 NE 5 7 30.11 1020 10 16 0.00 0.00
11:58 am 11:58 Sunny 71 21.9 25 -3.9 17 17 E 7 11 30.06 1018 10 16 0.00 0.00
12:58 pm 12:58 Sunny 74 23.2 17 -8.2 12 12 S 8 13 30.02 1017 10 16 0.00 0.00
1:58 pm 13:58 Sunny 76 24.3 18 -7.8 11 11 SSW 10 17 29.98 1015 10 16 0.00 0.00
2:58 pm 14:58 Sunny 76 24.2 17 -8.3 11 11 SSW 12 19 29.96 1015 10 16 0.00 0.00
3:58 pm 15:58 Sunny 76 24.2 16 -8.8 10 10 S 8 13 29.94 1014 10 16 0.00 0.00
4:58 pm 16:58 Sunny 73 22.8 18 -8 12 12 S 14 22 29.92 1013 10 16 0.00 0.00
5:58 pm 17:58 Sunny 67 19.2 21 -6.3 17 17 SSE 14 22 29.94 1014 10 16 0.00 0.00
6:58 pm 18:58 Clear 62 16.5 22 -5.4 22 22 S 15 24 29.95 1014 10 16 0.00 0.00
7:58 pm 19:58 Clear 57 13.8 23 -4.9 27 27 SSW 6 9 29.95 1014 10 16 0.00 0.00
8:58 pm 20:58 Clear 58 14.7 22 -5.4 25 25 S 17 28 29.92 1013 10 16 0.00 0.00
9:58 pm 21:58 Clear 59 14.8 19 -7.3 21 21 S 24 39 29.88 1012 10 16 0.00 0.00
10:58 pm 22:58 Clear 59 15.2 19 -7.1 21 21 SSW 22 35 29.85 1011 10 16 0.00 0.00
11:58 pm 23:58 Clear 50 10 21 -6 32 32 NNW 9 15 29.85 1011 10 16 0.00 0.00

Powered by AerisWeather